Tracking 30918 objects as of 2-Jul-2025
HD Live streaming from Space Station
objects crossing your sky now

STARLINK-4448

Track STARLINK-4448 now!
10-day predictions
STARLINK-4448 is classified as:


NORAD ID: 53504
Int'l Code: 2022-099AR
Perigee: 568.5 km
Apogee: 571.8 km
Inclination: 97.7 °
Period: 95.9 minutes
Semi major axis: 6941 km
RCS: Unknown
Launch date: August 12, 2022
Source: United States (US)
Launch site: AIR FORCE WESTERN TEST RANGE (AFWTR)
Your satellite tracking list
FENGYUN 1C DEB
Track 1 satellite(s)




NASA's NSSDC Master Catalog

Two Line Element Set (TLE):
1 53504U 22099AR  25182.86111125 -.00000411  00000-0 -27427-4 0  9996
2 53504  97.6550 304.2718 0002325  91.3889 268.7602 15.01258305158359
Source of the keplerian elements: AFSPC